Location: Larrial
(48.2758°N, 4.5331°W)
Time: 23:01:53
(UTC+00:00)

AAUSAT CUBESAT 2 - Pass Details

Date: 06 December 2021
Orbit: 571 x 586 km, 97.5° (Epoch: 19 January)

Event Time Altitude Azimuth Distance (km) Brightness Sun altitude
Rises 05:35:48 0° 13° (NNE) 2,800 ? -22.0°
Reaches altitude 10° 05:37:58 10° 13° (NNE) 1,898 ? -21.7°
Maximum altitude 05:42:05 89° 82° (E) 586 ? -21.0°
Drops below altitude 10° 05:46:12 10° 194° (SSW) 1,892 ? -20.3°
Sets 05:48:20 0° 195° (SSW) 2,789 ? -20.0°
